Flag for Austria Weather past 2 weeks in Krems, Lower Austria, Austria

52 °F

Partly sunny.

Feels Like: 44 °F
Forecast: 36 / 55 °F
Wind: 33 mph from West

Location: Tulln Airport

Current Time: Dec 1, 2015 at 10:50:14 AM

Latest Report: Dec 1, 2015 at 9:50 AM

Visibility: 25 mi

Pressure: 30.09 "Hg

Humidity: 77%

Dew point: 45 °F

Location of KremsLocation

Historic Weather in Krems — Graph


Krems temperature yesterday

Maximum temperature yesterday: 52 °F (at 4:50 AM)
Minimum temperature yesterday: 45 °F (at 4:50 PM)
Average temperature yesterday: 51 °F

Past Weeks' High & Low Weather Summary

High66 °F (Nov 18, 11:50 AM)100% (Nov 20, 1:50 PM)30.33 "Hg (Nov 20, 1:50 PM)
Low23 °F (Nov 25, 4:50 AM)43% (Nov 18, 11:50 AM)29.42 "Hg (Nov 20, 7:50 PM)
Average44 °F77%29.94 "Hg
* Reported Nov 16 9:20 AM — Dec 1 9:50 AM, Krems, Weather by CustomWeather, © 2015

Note: Actual official high and low records may vary slightly from our data, if they occured in-between our weather recording intervals... More about our weather records


Krems weather history for previous 24 hours

Time TempWeatherWind HumidityBarometerVisibility
9:50 AM
Tue, Dec 1
52 °FPartly sunny.33 mph77%30.09 "Hg25 mi
8:50 AM50 °FBroken clouds.33 mph82%30.09 "Hg25 mi
8:20 AM50 °FBroken clouds.33 mph82%30.07 "Hg22 mi
7:50 AM50 °FBroken clouds.32 mph82%30.07 "Hg22 mi
6:50 AM50 °FPartly cloudy.31 mph82%30.04 "Hg16 mi
5:50 AM50 °FPartly cloudy.28 mph82%30.01 "Hg16 mi
4:50 AM50 °FPassing clouds.29 mph82%30.01 "Hg16 mi
9:50 PM
Mon, Nov 30
52 °FPassing clouds.21 mph67%30.04 "Hg12 mi
8:50 PM52 °FPartly cloudy.23 mph67%30.04 "Hg12 mi
7:50 PM50 °FPassing clouds.22 mph76%30.07 "Hg12 mi
6:50 PM50 °FPassing clouds.20 mph82%30.07 "Hg12 mi
5:50 PM48 °FLight rain. Passing clouds.17 mph87%30.09 "Hg9 mi
4:50 PM45 °FRain. Passing clouds.3 mph100%30.09 "Hg6 mi
3:50 PM46 °FRain. Broken clouds.6 mph93%30.12 "Hg6 mi
2:50 PM46 °FRain. Broken clouds.12 mph93%30.12 "Hg6 mi
1:50 PM52 °FLight rain. Partly sunny.26 mph77%30.07 "Hg25 mi
12:50 PM52 °FPartly sunny.25 mph72%30.07 "Hg25 mi
11:50 AM52 °FPartly sunny.28 mph72%30.07 "Hg25 mi
11:20 AM52 °FPartly sunny.28 mph72%30.07 "Hg25 mi
10:50 AM52 °FPartly sunny.29 mph72%30.07 "Hg25 mi
10:20 AM52 °FPartly sunny.29 mph72%30.07 "Hg25 mi
Weather by CustomWeather, © 2015

See weather overviewHow to use our weather pages